OBJECT H, 59780

Orbit data source: Space-Track

You're viewing an Uncataloged Satellite

Recently launched and/or uncataloged satellites may have evolving metadata. Metadata may include but not limited to: Owner, Maufacturer, Bus, Motor, and Mission.

OBJECT H, 59780 is a satellite owned by Byuro 1440 (CIS) in SSO that was launched on Thu, 16 May 2024 UTC via a SOYUZ-2-1B launch vehicle from the Plesetsk Missile And Space Complex (PKMTR). Unknown objects in Earth's orbit typically refer to objects detected orbiting the Earth but have not yet been identified or cataloged. These objects could be anything from previously untracked satellites, spent rocket stages, debris from satellite collisions, or even natural meteoroids temporarily captured by Earth's gravity.

Loading next visibility...
Identifier
59780, 2024-092H
Orbit
SSO
Last TLE update
7 hours ago
Origin
Manufacturer
Byuro 1440
Mission
Operational spacecraft
Bus & Motor
RASSVET-2, Unknown motor
Mass
~200 kg wet, ~200 kg dry
Launch date (UTC)
2024-05-16 (1 year ago)
Launch vehicle
SOYUZ-2-1B
Launch site
Plesetsk Missile And Space Complex (PKMTR)
Object type
Unknown
Shape & HBR
Unknown
Radar Cross Section
Medium (>0.1 m² and <1 m²)

Expand to show TLE details & history

TLE from 7 hours ago
0 OBJECT H
1 59780U 24092H   25128.93529794  .00000275  00000-0  12002-3 0  9994
2 59780  98.6319 244.3727 0011595 323.7303  36.3093 14.31596949 51054
Epoch: 2025-05-08T22:26Z
Definitive object data (Epoch: 2025-05-08T22:26:49.742Z)
Latitude
-0°
Longitude
40.66678°
Altitude
782.638 km
Speed
7.466 km/s
True Right ascension
16h 17m 29s
True Declination
0° 00' 00"
Sunlit
Object was in full shadow at TLE epoch
Visualization TLE readout
Latitude
29.7494°
Longitude
35.99964°
Altitude
786.891 km
Speed
7.465 km/s
Apparent Right ascension
19h 26m 24s
Apparent Declination
-7° 54' 56"
Sunlit
Object is in full shadow
Visualization observer readout
Local Sidereal Time
13:26:24
Azimuth
96.088° ESE
Elevation
-5.069°
Doppler factor
1
Orbital elements
Apogee altitude
791.841 km
Perigee altitude
775.233 km
Semi-major axis
7,161.674 km
Eccentricity
0.0011595
Inclination
98.6319°
RAAN
244.3727°
Arg. of periapsis
323.7303°
True anomaly
36.38807°
Mean anomaly
36.3093°
Eccentric anomaly
36.34868°
Mean motion
3.58114 °/min
BSTAR
0.00012002
Orbital period
100.53 mins
Loading maneuver chart data...
Loading SW <> Apogee altitude chart data...
Loading historical data...
Loading historical data...
Loading historical data...
Loading historical data...
Loading historical data...
Loading historical data...
Loading historical data...

OBJECT H Visibility forecast

Observer location: undefined°, undefined°

Span
Click to sort rows by Start time (UTC) header in descending order
Start Az.
Max El. time (UTC)
Max El. Az.
Max El.
End time (UTC)
End Az.
8 mins2025-05-09 06:57:46.140Z133.944° SE2025-05-09 07:01:46.140Z74.361° E32.079°2025-05-09 07:05:46.140Z7.041° NNE
6 mins2025-05-09 08:38:46.140Z224.824° SW2025-05-09 08:41:46.140Z271.501° WNW22.058°2025-05-09 08:44:46.140Z312.541° NW
4 mins2025-05-09 19:12:46.140Z73.344° E2025-05-09 19:13:46.140Z85.775° E13.749°2025-05-09 19:16:46.140Z121.659° SE
8 mins2025-05-09 20:50:46.140Z2.805° NNE2025-05-09 20:53:46.140Z302.645° NW42.236°2025-05-09 20:58:46.140Z206.199° SW
|